Date String (YYYY-MM-DD hh:mm:ss) UTC,Instrument flags,absolute air pressure of the measurement (hPa),sample flow rate (lpm),inlet stack bypass flow (lpm),air temperature of the measurement (°C),ambient temperature measured by the external sensor (°C),aerosol sample conditioner tube jacket temperature (°C),OPC LED temperature (°C),internal box temperature (°C),relative humidity of the measurement (%),span deviation,mass concentration of particles derived from Lorenz-Mie calculation of OPC scattering (μg/m³),mass concentration of particles derived from Lorenz-Mie calculation of OPC scattering (μg/m³),mass concentration of particles derived from Lorenz-Mie calculation of OPC scattering (μg/m³)
DateTimeUTC,F1_M11,P_M11,Q1_M11,Q2_M11,T1_M11,T2_M11,T3_M11,T4_M11,T5_M11,U1_M11,ZSPAN_M11,X0_M11,X2_M11,X1_M11
2023-09-22 10:00:00,SystemResetWarning,0829.4,5.00,000.00,028.7,027.2,000.0,037.1,030.4,21.4,0000.0,0010.50,0004.15,0003.43
2023-09-22 10:01:00,SystemResetWarning,0829.4,5.01,000.00,028.7,027.2,000.0,037.1,030.3,21.4,0000.0,0010.48,0004.13,0003.43
2023-09-22 10:02:00,SystemResetWarning,0829.4,5.01,000.00,028.7,027.2,000.0,037.1,030.3,21.5,0000.0,0011.48,0004.13,0003.43
2023-09-22 10:03:00,SystemResetWarning,0829.3,5.00,000.00,028.7,027.2,000.0,037.1,030.3,21.5,0000.0,0011.34,0004.10,0003.39
2023-09-22 10:04:00,SystemResetWarning,0829.3,4.99,000.00,028.8,027.2,000.0,037.1,030.3,21.7,0000.0,0011.56,0004.02,0003.35
2023-09-22 10:05:00,SystemResetWarning,0829.3,4.99,000.00,028.8,027.2,000.0,037.1,030.3,22.0,0000.0,0011.27,0003.99,0003.32
2023-09-22 10:06:00,SystemResetWarning,0829.4,5.02,000.00,028.8,027.2,000.0,037.1,030.3,22.1,0000.0,0011.05,0003.97,0003.32
2023-09-22 10:07:00,SystemResetWarning,0829.3,5.01,000.00,028.8,027.2,000.0,037.1,030.3,22.2,0000.0,0011.20,0003.99,0003.31
2023-09-22 10:08:00,SystemResetWarning,0829.4,4.99,000.00,028.8,027.2,000.0,037.1,030.3,22.2,0000.0,0011.10,0004.03,0003.32
2023-09-22 10:09:00,SystemResetWarning,0829.4,5.00,000.00,028.8,027.2,000.0,037.1,030.3,22.2,0000.0,0010.78,0004.05,0003.32
2023-09-22 10:10:00,SystemResetWarning,0829.4,5.00,000.00,028.8,027.2,000.0,037.1,030.4,21.9,0000.0,0010.47,0004.08,0003.33
2023-09-22 10:11:00,SystemResetWarning,0829.4,5.00,000.00,028.8,027.2,000.0,037.1,030.4,21.9,0000.0,0010.63,0004.06,0003.33
2023-09-22 10:12:00,SystemResetWarning,0829.4,5.00,000.00,028.8,027.2,000.0,037.1,030.4,21.7,0000.0,0010.78,0004.04,0003.33
2023-09-22 10:13:00,SystemResetWarning,0829.3,5.01,000.00,028.8,027.2,000.0,037.1,030.4,21.7,0000.0,0009.82,0004.01,0003.32
2023-09-22 10:14:00,SystemResetWarning,0829.3,5.01,000.00,028.8,027.2,000.0,037.1,030.4,21.7,0000.0,0009.60,0004.00,0003.32
2023-09-22 10:15:00,SystemResetWarning,0829.3,5.00,000.00,028.8,027.2,000.0,037.1,030.4,21.7,0000.0,0009.18,0004.03,0003.33
2023-09-22 10:16:00,SystemResetWarning,0829.3,5.00,000.00,028.8,027.2,000.0,037.1,030.4,21.8,0000.0,0009.06,0004.02,0003.34
2023-09-22 10:17:00,SystemResetWarning,0829.3,4.99,000.00,028.8,027.2,000.0,037.1,030.4,21.9,0000.0,0010.05,0004.05,0003.34
2023-09-22 10:18:00,SystemResetWarning,0829.3,5.00,000.00,028.8,027.2,000.0,037.1,030.4,21.9,0000.0,0010.22,0004.04,0003.35
2023-09-22 10:19:00,SystemResetWarning,0829.3,5.00,000.00,028.8,027.2,000.0,037.1,030.4,22.1,0000.0,0010.37,0004.05,0003.36
2023-09-22 10:20:00,SystemResetWarning,0829.3,5.01,000.00,028.8,027.2,000.0,037.1,030.4,22.3,0000.0,0010.52,0004.05,0003.36
2023-09-22 10:21:00,SystemResetWarning,0829.4,5.01,000.00,028.8,027.3,000.0,037.1,030.4,22.4,0000.0,0010.44,0004.06,0003.36
2023-09-22 10:22:00,SystemResetWarning,0829.4,5.00,000.00,028.8,027.3,000.0,037.1,030.4,22.6,0000.0,0010.88,0004.06,0003.36
2023-09-22 10:23:00,SystemResetWarning,0829.4,4.99,000.00,028.8,027.3,000.0,037.1,030.4,22.4,0000.0,0010.91,0004.07,0003.37
2023-09-22 10:24:00,SystemResetWarning,0829.3,4.99,000.00,028.8,027.3,000.0,037.1,030.4,22.3,0000.0,0010.58,0004.08,0003.39
2023-09-22 10:25:00,SystemResetWarning,0829.3,4.99,000.00,028.8,027.3,000.0,037.1,030.4,22.4,0000.0,0011.46,0004.09,0003.39
2023-09-22 10:26:00,SystemResetWarning,0829.4,5.01,000.00,028.8,027.3,000.0,037.2,030.4,23.1,0000.0,0011.50,0004.09,0003.39
2023-09-22 10:27:00,SystemResetWarning,0829.3,5.01,000.00,028.8,027.3,000.0,037.1,030.4,23.1,0000.0,0011.80,0004.08,0003.39
2023-09-22 10:28:00,SystemResetWarning,0829.3,5.00,000.00,028.8,027.3,000.0,037.2,030.4,23.2,0000.0,0011.43,0004.06,0003.39
2023-09-22 10:29:00,SystemResetWarning,0829.3,4.99,000.00,028.8,027.3,000.0,037.2,030.4,22.8,0000.0,0011.17,0004.07,0003.39
2023-09-22 10:30:00,SystemResetWarning,0829.4,5.00,000.00,028.8,027.3,000.0,037.2,030.4,22.4,0000.0,0010.84,0004.07,0003.40
2023-09-22 10:31:00,SystemResetWarning,0829.4,5.02,000.00,028.8,027.3,000.0,037.2,030.4,22.2,0000.0,0010.63,0004.08,0003.40
2023-09-22 10:32:00,SystemResetWarning,0829.5,5.00,000.00,028.8,027.3,000.0,037.2,030.4,22.3,0000.0,0010.75,0004.07,0003.41
2023-09-22 10:33:00,SystemResetWarning,0829.5,4.99,000.00,028.8,027.2,000.0,037.2,030.4,22.4,0000.0,0010.48,0004.09,0003.42
2023-09-22 10:34:00,SystemResetWarning,0829.5,5.00,000.00,028.8,027.2,000.0,037.2,030.4,22.3,0000.0,0011.33,0004.13,0003.43
2023-09-22 10:35:00,SystemResetWarning,0829.4,5.00,000.00,028.8,027.2,000.0,037.2,030.4,22.3,0000.0,0011.74,0004.14,0003.42
2023-09-22 10:36:00,SystemResetWarning,0829.4,5.01,000.00,028.8,027.2,000.0,037.2,030.4,22.3,0000.0,0011.48,0004.17,0003.42
2023-09-22 10:37:00,SystemResetWarning,0829.4,5.01,000.00,028.8,027.2,000.0,037.2,030.4,22.3,0000.0,0012.16,0004.19,0003.43
2023-09-22 10:38:00,SystemResetWarning,0829.3,5.00,000.00,028.8,027.2,000.0,037.2,030.4,22.3,0000.0,0011.98,0004.22,0003.44
2023-09-22 10:39:00,SystemResetWarning,0829.3,4.99,000.00,028.8,027.2,000.0,037.2,030.4,22.3,0000.0,0011.87,0004.26,0003.45
2023-09-22 10:40:00,SystemResetWarning,0829.3,4.99,000.00,028.8,027.2,000.0,037.2,030.4,22.2,0000.0,0011.63,0004.27,0003.46
2023-09-22 10:41:00,SystemResetWarning,0829.4,5.01,000.00,028.8,027.2,000.0,037.2,030.4,22.3,0000.0,0011.82,0004.31,0003.48
2023-09-22 10:42:00,SystemResetWarning,0829.3,5.01,000.00,028.8,027.2,000.0,037.2,030.4,22.6,0000.0,0012.11,0004.33,0003.49
2023-09-22 10:43:00,SystemResetWarning,0829.3,5.01,000.00,028.8,027.2,000.0,037.2,030.4,22.5,0000.0,0012.45,0004.35,0003.52
2023-09-22 10:44:00,SystemResetWarning,0829.4,4.99,000.00,028.8,027.2,000.0,037.2,030.4,22.4,0000.0,0012.25,0004.37,0003.54
2023-09-22 10:45:00,SystemResetWarning,0829.4,4.99,000.00,028.8,027.2,000.0,037.2,030.4,22.5,0000.0,0011.37,0004.36,0003.57
2023-09-22 10:46:00,SystemResetWarning,0829.4,5.00,000.00,028.8,027.2,000.0,037.2,030.4,22.6,0000.0,0010.44,0004.36,0003.58
2023-09-22 10:47:00,SystemResetWarning,0829.5,5.00,000.00,028.8,027.2,000.0,037.2,030.4,22.6,0000.0,0010.29,0004.35,0003.59
2023-09-22 10:48:00,SystemResetWarning,0829.6,5.01,000.00,028.8,027.2,000.0,037.2,030.4,22.4,0000.0,0009.57,0004.38,0003.60
2023-09-22 10:49:00,SystemResetWarning,0829.6,5.00,000.00,028.8,027.2,000.0,037.2,030.4,22.3,0000.0,0009.16,0004.39,0003.61
2023-09-22 10:50:00,SystemResetWarning,0829.6,5.00,000.00,028.8,027.2,000.0,037.2,030.3,22.5,0000.0,0009.16,0004.40,0003.62
2023-09-22 10:51:00,SystemResetWarning,0829.6,5.00,000.00,028.8,027.2,000.0,037.2,030.4,22.6,0000.0,0009.27,0004.40,0003.63
2023-09-22 10:52:00,SystemResetWarning,0829.5,5.00,000.00,028.8,027.2,000.0,037.2,030.4,22.5,0000.0,0009.20,0004.39,0003.63
2023-09-22 10:53:00,SystemResetWarning,0829.6,4.99,000.00,028.8,027.2,000.0,037.2,030.4,22.8,0000.0,0008.91,0004.34,0003.62
2023-09-22 10:54:00,SystemResetWarning,0829.6,5.00,000.00,028.8,027.2,000.0,037.2,030.4,22.6,0000.0,0008.68,0004.30,0003.61
2023-09-22 10:55:00,SystemResetWarning,0829.6,5.00,000.00,028.8,027.2,000.0,037.2,030.3,22.2,0000.0,0008.72,0004.31,0003.61
2023-09-22 10:56:00,SystemResetWarning,0829.6,4.99,000.00,028.8,027.2,000.0,037.2,030.3,22.0,0000.0,0008.82,0004.30,0003.61
2023-09-22 10:57:00,SystemResetWarning,0829.6,5.01,000.00,028.8,027.2,000.0,037.2,030.3,22.1,0000.0,0009.12,0004.38,0003.63
2023-09-22 10:58:00,SystemResetWarning,0829.6,5.00,000.00,028.8,027.2,000.0,037.2,030.3,22.1,0000.0,0009.29,0004.42,0003.67
2023-09-22 10:59:00,SystemResetWarning,0829.6,5.01,000.00,028.8,027.2,000.0,037.2,030.3,22.1,0000.0,0009.91,0004.44,0003.71
